Flag for Germany Weather past 2 weeks in Cottbus, Brandenburg, Germany

Now
62 °F

Overcast.


Feels Like: 62 °F
Forecast: 62 / 78 °F
Wind: 2 mph from Northeast

Location: Cottbus

Current Time: Jul 24, 2014 at 4:51:51 AM

Latest Report: Jul 24, 2014 at 4:00 AM


Visibility: 25 mi

Pressure: 29.99 "Hg

Humidity: 73%

Dew point: 53 °F

Location of CottbusLocation

Historic Weather in Cottbus — Graph

°F

Cottbus temperature yesterday

Maximum temperature yesterday: 85 °F (at 4:00 PM)
Minimum temperature yesterday: 64 °F (at 10:00 PM)
Average temperature yesterday: 72 °F

Past Weeks' High & Low Weather Summary

 TemperatureHumidityPressure
High95 °F (Jul 20, 4:00 PM)98% (Jul 10, 6:00 AM)30.16 "Hg (Jul 10, 6:00 AM)
Low51 °F (Jul 13, 6:00 AM)24% (Jul 20, 4:00 PM)29.61 "Hg (Jul 9, 3:00 PM)
Average71 °F65%29.92 "Hg
* Reported Jul 9 3:00 PM — Jul 24 4:00 AM, Cottbus, Weather by CustomWeather, © 2014

Note: Actual official high and low records may vary slightly from our data, if they occured in-between our weather recording intervals... More about our weather records

Advertising

Cottbus weather history for previous 24 hours

 ConditionsComfort  
Time TempWeatherWind HumidityBarometerVisibility
4:00 AM
Jul 24
62 °FOvercast.2 mph73%29.99 "Hg25 mi
3:00 AM62 °FOvercast.3 mph75%30.00 "Hg25 mi
2:00 AM60 °FPassing clouds.1 mph88%30.01 "Hg16 mi
1:00 AM61 °FOvercast.2 mph87%30.01 "Hg16 mi
12:00 AM63 °FOvercast.2 mph86%30.01 "Hg16 mi
11:00 PM
Jul 23
64 °FOvercast.1 mph88%30.02 "Hg14 mi
10:00 PM64 °FOvercast.2 mph87%30.02 "Hg17 mi
9:00 PM66 °FLow clouds.1 mph83%30.01 "Hg17 mi
8:00 PM73 °FOvercast.3 mph47%29.99 "Hg34 mi
7:00 PM74 °FOvercast.7 mph45%30.00 "Hg22 mi
6:00 PM81 °FOvercast.5 mph32%29.97 "Hg37 mi
5:00 PM82 °FOvercast.6 mph30%29.96 "Hg31 mi
4:00 PM85 °FPassing clouds.5 mph25%29.97 "Hg28 mi
3:00 PM84 °FSunny.5 mph24%29.98 "Hg28 mi
6:00 AM65 °FSunny.2 mph67%30.06 "Hg22 mi
5:00 AM66 °FClear.2 mph65%30.05 "Hg22 mi
4:00 AM69 °FClear.3 mph60%30.04 "Hg22 mi
Weather by CustomWeather, © 2014

See weather overviewHow to use our weather pages